Regional Weather Roundup
Issued by NWS

Home | Current Version | Previous Version | Text Only | Print | Product List | Glossary Off
Versions: 1 2 3 4 5 6 7 8 9 10 11 12 13 14 15 16 17 18 19 20 21 22 23 24 25 26 27 28 29 30 31 32 33 34 35 36 37 38 39 40 41 42 43 44 45 46 47 48 49 50

000
ASUS45 KBOU 240007
RWRCO

WEATHER ROUNDUP FOR COLORADO
NATIONAL WEATHER SERVICE DENVER/BOULDER CO
600 PM MDT SAT MAY 23 2015

NOTE: "FAIR" INDICATES FEW OR NO CLOUDS BELOW 12000 FEET WITH NO
SIGNIFICANT WEATHER AND/OR OBSTRUCTIONS TO VISIBILITY.

COZ001>005-013-030-031-240100-
...NORTHWEST COLORADO...

CITY           SKY/WX    TMP DP  RH WIND       PRES   REMARKS
CRAIG          CLOUDY    52  33  48 S10       29.97R
HAYDEN         CLOUDY    41  34  75 SW17G26   30.00R
MEEKER         CLOUDY    49  36  61 MISG      29.96R
MOUNT WERNER   NOT AVBL
STEAMBOAT SPGS CLOUDY    46  37  72 W7        29.98S
WALDEN         CLOUDY    50  36  57 NW12      30.00S
$$

COZ006>008-011-240100-
...WEST CENTRAL VALLEYS...

CITY           SKY/WX    TMP DP  RH WIND       PRES   REMARKS
GRAND JUNCTION CLOUDY    50  43  77 E5        29.96R
MONTROSE       CLOUDY    51  41  68 NE9       30.00S
EAGLE          PTSUNNY   50  36  57 W6        30.01R
RIFLE          CLOUDY    56  36  47 E9        29.93F
DELTA          CLOUDY    53  43  69 MISG      29.98F
NUCLA          CLOUDY    52  36  54 S16       30.02S
$$

COZ017>023-064>068-240100-
...SOUTHWEST COLORADO...

CITY           SKY/WX    TMP DP  RH WIND       PRES   REMARKS
DURANGO        CLOUDY    53  32  44 W17       30.00R
CORTEZ         LGT RAIN  45  42  89 NW3       30.04R FOG
PAGOSA SPRINGS CLOUDY    53  23  31 W14G21    30.02S
TELLURIDE      CLOUDY    36  35  96 CALM      30.08F
WOLF CREEK PAS NOT AVBL
$$

COZ009-010-012-014-032>034-037-058>063-240100-
...CENTRAL COLORADO...

CITY           SKY/WX    TMP DP  RH WIND       PRES   REMARKS
ASPEN          CLOUDY    43  35  73 CALM      30.01F
BUENA VISTA    CLOUDY    46  30  52 W9G16     30.00F
COPPER MTN     CLOUDY    30  25  80 S23G30    30.13R VSB<1/4 WCI  17
BERTHOUD PASS  PTSUNNY   27  19  74 MISG      30.12F THUNDER
COTTONWOOD PAS CLOUDY    41  30  65 N5        30.04F
GUNNISON       PTSUNNY   52  23  32 NW8       30.00S
KREMMLING      PTSUNNY   43  36  75 S9        30.01R
LEADVILLE      CLOUDY    36  24  62 E8        30.05F
MONARCH PASS   CLOUDY    32  23  69 W18G24    30.22R WCI  20
SALIDA         CLOUDY    54  30  39 NW12G17   30.02R
SUNLIGHT       CLOUDY    36  32  87 CALM      30.12S THUNDER
WILKERSON PASS CLOUDY    34  28  80 W12G22    30.10R WCI  25
$$

COZ069>075-240100-
...SAN LUIS VALLEY/SANGRE DE CRISTO MOUNTAINS...

CITY           SKY/WX    TMP DP  RH WIND       PRES   REMARKS
ALAMOSA        SUNNY     58  22  24 SW16      29.95F
LA VETA PASS   MOSUNNY  N/A N/A N/A MISG      30.05F
SAGUACHE       MOSUNNY   55  21  26 SW7G18    29.95S
$$

COZ035-036-038>040-240100-
...NORTHERN COLORADO FRONT RANGE...

CITY           SKY/WX    TMP DP  RH WIND       PRES   REMARKS
DENVER INTL AP CLOUDY    54  48  80 E15       29.87F
DMNS CITY PARK   N/A     56  45  65 N7G15     29.89S
AURORA         PTSUNNY   55  45  69 E10       29.90R
FRONT RANGE AP PTSUNNY   54  50  87 NE9       29.90F
ERIE MUNI ARPT PTSUNNY   57  47  69 NE6       29.89F
BOULDER MUN AP PTSUNNY   57  46  67 NE5       29.90F
CENTENNIAL     PTSUNNY   54  41  61 S5        29.90R
BROOMFIELD       N/A     57  48  72 N8        29.91
FORT COLLINS   CLOUDY    57  45  62 NE7       29.90F
LONGMONT       CLOUDY    62  48  60 N7        29.91F
$$

COZ041-046-047-076>085-087-088-240100-
...PIKES PEAK/PALMER DIVIDE AND SOUTHERN FOOTHILLS...

CITY           SKY/WX    TMP DP  RH WIND       PRES   REMARKS
COLO. SPRINGS  MOSUNNY   57  40  52 NE6       29.90F
A. F. ACADEMY  MOSUNNY   53  41  63 NW2       29.90F
ELLICOTT       NOT AVBL
FALCON         MOSUNNY   54  41  62 E7        29.93F
FORT CARSON    MOSUNNY   57  44  62 N9        29.88F
LIMON          MOSUNNY   56  44  64 N10       29.91S
MONUMENT HILL  NOT AVBL
TRINIDAD       MOSUNNY   70  25  18 SW18      29.81F
$$

COZ042>045-048>051-090-091-240100-
...NORTHEAST COLORADO...

CITY           SKY/WX    TMP DP  RH WIND       PRES   REMARKS
GREELEY ARPT   CLOUDY    54  48  82 NE12      29.88F
AKRON          CLOUDY    53  51  93 N7        29.92R
BURLINGTON     TSTM      51  48  89 W30G45    29.91R FOG
WRAY           CLOUDY    65  54  68 E12       29.89S
STERLING       RAIN      50  50 100 N13       29.91S
HOLYOKE        NOT AVBL
FORT MORGAN    CLOUDY    56  51  82 N5        29.91F
$$

COZ086-089-092>099-240100-
...SOUTHEAST COLORADO...

CITY           SKY/WX    TMP DP  RH WIND       PRES   REMARKS
PUEBLO         SUNNY     65  48  54 NE9       29.80F
LA JUNTA       SUNNY     62  53  72 NE17      29.80R
LAMAR          PTSUNNY   59  53  80 NE15      29.79F
SPRINGFIELD      N/A     62  55  77 S23G30    29.83S
$$



USA.gov is the U.S. government's official web portal to all federal, state and local government web resources and services.